#timestamp,LO_Frequency,Hit 
1501110015.3,286047015.0,N
1501110035.1,286047016.3,N
1501110055.9,286047017.0,N
1501110075.7,286047014.6,N
1501110095.5,286047015.7,N
1501110115.3,286047016.8,N
1501110135.2,286047017.2,N
1501110155.0,286047014.4,N
1501110155.9,286047014.4,N
1501110175.7,286047014.4,N
1501110195.6,286047015.3,N
1501110215.4,286047013.0,N
1501110235.2,286047015.5,N
1501110255.1,286047015.6,N
1501110256.0,286047015.6,N
1501110275.8,286047015.6,N
1501110295.6,286047012.7,N
1501110315.5,286047014.7,N
1501110335.3,286047017.2,N
1501110355.1,286047018.5,Y
1501110375.9,286047008.0,N
1501110395.7,286047006.6,N
1501110415.5,286047008.0,N
1501110435.4,286047010.6,N
1501110455.2,286047008.9,N
1501110475.0,286047009.1,N
1501110475.9,286047009.1,N
1501110495.7,286047008.3,N
1501110515.6,286047011.5,N
1501110535.4,286047009.7,N
1501110555.2,286047009.5,N
1501110575.1,286047009.5,N
1501110576.0,286047009.5,N
1501110595.8,286047010.5,N
1501110615.6,286047009.4,N
1501110635.5,286047012.2,N
1501110655.3,286047009.4,N
1501110675.1,286047011.1,N
1501110695.9,286047012.3,N
1501110715.7,286047011.4,N
1501110735.5,286047009.5,N
1501110755.3,286047012.3,N
1501110775.2,286047012.4,N
1501110795.0,286047009.7,N
1501110795.9,286047009.7,N
1501110815.7,286047010.9,N
1501110835.6,286047011.5,N
1501110855.4,286047010.9,N
1501110875.2,286047011.9,N
1501110895.1,286047013.8,N
1501110896.0,286047013.8,N
1501110915.8,286047011.9,N
1501110935.6,286047012.2,N
1501110955.5,286047012.3,N
1501110975.3,286047011.1,N
1501110995.1,286047012.4,N
1501111015.9,286047012.1,N
1501111035.7,286047012.4,N
1501111055.5,286047011.5,N
1501111075.3,286047011.1,N
1501111095.2,286047012.1,N
1501111115.0,286047012.9,N
1501111115.9,286047012.9,N
1501111135.7,286047012.7,N
1501111155.6,286047012.8,N
1501111175.4,286047012.7,N
1501111195.2,286047011.2,N
1501111215.1,286047015.1,N
1501111216.0,286047015.1,N
1501111235.8,286047014.2,N
1501111255.6,286047013.1,N
1501111275.5,286047013.0,N
1501111295.3,286047010.9,N
1501111315.1,286047012.7,N
1501111335.9,286047015.2,N
1501111355.7,286047014.1,N
1501111375.5,286047017.2,N
1501111395.3,286047012.5,N
1501111415.2,286047013.7,N
1501111435.0,286047012.7,N
1501111435.9,286047012.7,N
1501111455.7,286047013.7,N
1501111475.6,286047013.8,N
1501111495.4,286047014.9,N
1501111515.2,286047014.6,N
1501111535.1,286047014.8,N
1501111536.0,286047014.8,N
1501111555.8,286047017.0,N
1501111575.6,286047012.5,N
1501111595.5,286047015.0,N
1501111615.3,286047013.4,N
1501111635.1,286047011.2,N
1501111655.8,286047015.1,N
1501111675.7,286047015.5,N
1501111695.5,286047014.3,N
1501111715.3,286047015.6,N
1501111735.2,286047012.7,N
1501111755.9,286047014.8,N
1501111775.7,286047015.3,N
1501111795.6,286047014.2,N
1501111815.4,286047013.8,N
1501111835.2,286047011.9,N
1501111855.1,286047013.6,N
1501111856.0,286047013.6,N
1501111875.8,286047011.3,N
1501111895.6,286047013.0,N
1501111915.4,286047015.2,N
1501111935.3,286047013.6,N
1501111955.1,286047013.4,N
1501111975.8,286047014.9,N
1501111995.7,286047015.6,N
1501112015.5,286047017.2,N
1501112035.3,286047012.5,N
1501112055.2,286047017.1,N
1501112075.9,286047016.7,N
1501112095.7,286047016.6,N
1501112115.6,286047014.3,N
1501112135.4,286047017.4,N
1501112155.2,286047020.1,Y
1501112175.1,286047009.6,N
1501112176.0,286047009.6,N
1501112195.8,286047010.1,N
1501112215.6,286047012.4,N
1501112235.5,286047009.4,N
1501112255.3,286047009.5,N
1501112275.1,286047011.2,N
1501112295.8,286047010.4,N
1501112315.7,286047009.7,N
1501112335.5,286047010.4,N
1501112355.3,286047010.8,N
1501112375.2,286047007.7,N
1501112395.9,286047008.3,N
1501112415.7,286047008.3,N
1501112435.6,286047008.6,N
1501112455.4,286047007.7,N
1501112475.2,286047008.6,N
1501112495.0,286047009.0,N
1501112496.0,286047009.0,N
1501112515.8,286047006.6,N
1501112535.6,286047006.3,N
1501112555.4,286047007.4,N
1501112575.3,286047006.3,N
1501112595.1,286047008.1,N
1501112615.8,286047004.6,N
1501112635.7,286047008.7,N
1501112655.5,286047006.9,N
1501112675.3,286047008.5,N
1501112695.2,286047008.8,N
1501112715.9,286047009.0,N
1501112735.7,286047007.7,N
1501112755.6,286047006.5,N
1501112775.4,286047007.9,N
1501112795.2,286047010.5,N
1501112815.0,286047007.7,N
1501112815.9,286047007.7,N
1501112835.8,286047008.1,N
1501112855.6,286047006.8,N
1501112875.4,286047008.5,N
1501112895.3,286047009.0,N
1501112915.1,286047006.2,N
1501112935.8,286047010.4,N
1501112955.7,286047008.5,N
1501112975.5,286047006.8,N
1501112995.3,286047006.6,N
1501113015.2,286047006.2,N
1501113035.9,286047008.8,N
1501113055.7,286047004.7,N
1501113075.5,286047005.3,N
1501113095.4,286047005.8,N
1501113115.2,286047005.5,N
1501113135.0,286047007.4,N
1501113135.9,286047007.4,N
1501113155.8,286047007.2,N
1501113175.6,286047007.1,N
1501113195.4,286047008.7,N
1501113215.3,286047008.5,N
1501113235.1,286047008.7,N
1501113236.0,286047008.7,N
1501113255.8,286047008.9,N
1501113275.7,286047010.5,N
1501113295.5,286047009.5,N
1501113315.3,286047009.4,N
1501113335.1,286047010.2,N
1501113355.9,286047010.3,N
1501113375.7,286047010.4,N
1501113395.5,286047010.4,N
1501113415.4,286047008.4,N
1501113435.2,286047010.8,N
1501113455.0,286047006.2,N
1501113455.9,286047006.2,N
1501113475.8,286047009.0,N
1501113495.6,286047010.8,N
1501113515.4,286047008.2,N
1501113535.3,286047008.6,N
1501113555.1,286047008.9,N
1501113556.0,286047008.9,N
1501113575.8,286047007.9,N
1501113595.6,286047007.9,N
